When you browse on this site, cookies collect data to enhance your experience and personalize the content and advertising you see.
Visit our Privacy Policy to learn more. By continuing to use the site, you agree to this use of cookies and data.

Hourly Weather Sidi Bu-l-Abbas

Today, 8 August, Saturday

Time Temperature Precipitation Wind Pressure Humidity
00:00 +25°C° 0 mm 0 mps 722 mmHg 40%
01:00 +26°C° 0 mm 1 mps 722 mmHg 43%
02:00 +26°C° 0 mm 1 mps 722 mmHg 45%
03:00 +25°C° 0 mm 2 mps 722 mmHg 48%
04:00 +25°C° 0 mm 1 mps 722 mmHg 50%
05:00 +25°C° 0 mm 1 mps 722 mmHg 52%
06:00 +25°C° 0 mm 1 mps 722 mmHg 54%
07:00 +28°C° 0 mm 1 mps 723 mmHg 44%
08:00 +31°C° 0 mm 1 mps 723 mmHg 34%
09:00 +34°C° 0 mm 1 mps 723 mmHg 24%
10:00 +36°C° 0 mm 2 mps 723 mmHg 22%
11:00 +38°C° 0 mm 3 mps 723 mmHg 20%
12:00 +39°C° 0 mm 3 mps 723 mmHg 18%
13:00 +40°C° 0 mm 4 mps 723 mmHg 19%
14:00 +40°C° 0 mm 5 mps 723 mmHg 19%
15:00 +41°C° 0 mm 6 mps 722 mmHg 20%
16:00 +40°C° 0 mm 5 mps 722 mmHg 22%
17:00 +39°C° 0 mm 5 mps 722 mmHg 24%
18:00 +36°C° 0 mm 4 mps 721 mmHg 26%
19:00 +35°C° 0 mm 4 mps 721 mmHg 27%
20:00 +33°C° 0 mm 3 mps 722 mmHg 28%
21:00 +31°C° 0 mm 2 mps 722 mmHg 29%
22:00 +30°C° 0 mm 2 mps 722 mmHg 29%
23:00 +29°C° 0 mm 1 mps 721 mmHg 28%

Tomorrow, 9 August, Sunday

Time Temperature Precipitation Wind Pressure Humidity
00:00 +29°C° 0 mm 1 mps 721 mmHg 28%
01:00 +28°C° 0 mm 1 mps 721 mmHg 32%
02:00 +27°C° 0 mm 1 mps 721 mmHg 36%
03:00 +27°C° 0 mm 1 mps 720 mmHg 40%
04:00 +27°C° 0 mm 1 mps 720 mmHg 41%
05:00 +27°C° 0 mm 1 mps 721 mmHg 42%
06:00 +27°C° 0 mm 1 mps 721 mmHg 43%
07:00 +30°C° 0 mm 1 mps 721 mmHg 34%
08:00 +34°C° 0 mm 2 mps 722 mmHg 25%
09:00 +37°C° 0 mm 2 mps 722 mmHg 17%
10:00 +38°C° 0 mm 2 mps 722 mmHg 15%
11:00 +40°C° 0 mm 2 mps 722 mmHg 14%
12:00 +41°C° 0 mm 2 mps 721 mmHg 13%
13:00 +42°C° 0 mm 3 mps 721 mmHg 14%
14:00 +42°C° 0 mm 4 mps 721 mmHg 15%
15:00 +42°C° 0 mm 5 mps 720 mmHg 15%
16:00 +41°C° 0 mm 5 mps 720 mmHg 18%
17:00 +40°C° 0 mm 5 mps 719 mmHg 21%
18:00 +37°C° 0 mm 5 mps 719 mmHg 24%
19:00 +35°C° 0 mm 3 mps 719 mmHg 27%
20:00 +32°C° 0 mm 2 mps 719 mmHg 31%
21:00 +30°C° 0 mm 1 mps 719 mmHg 35%
22:00 +29°C° 0 mm 1 mps 719 mmHg 38%
23:00 +29°C° 0 mm 1 mps 719 mmHg 40%

Day after tomorrow, 10 August, Monday

Time Temperature Precipitation Wind Pressure Humidity
00:00 +28°C° 0 mm 1 mps 719 mmHg 43%
01:00 +28°C° 0 mm 1 mps 718 mmHg 42%
02:00 +28°C° 0 mm 1 mps 718 mmHg 41%
03:00 +27°C° 0 mm 1 mps 718 mmHg 41%
04:00 +28°C° 0 mm 1 mps 718 mmHg 40%
05:00 +28°C° 0 mm 1 mps 718 mmHg 39%
06:00 +28°C° 0 mm 1 mps 718 mmHg 38%
07:00 +31°C° 0 mm 1 mps 719 mmHg 31%
08:00 +35°C° 0 mm 2 mps 719 mmHg 24%
09:00 +38°C° 0 mm 2 mps 719 mmHg 17%
10:00 +39°C° 0 mm 2 mps 719 mmHg 16%
11:00 +40°C° 0 mm 2 mps 719 mmHg 15%
12:00 +42°C° 0 mm 3 mps 719 mmHg 14%
13:00 +42°C° 0 mm 3 mps 719 mmHg 15%
14:00 +42°C° 0 mm 4 mps 718 mmHg 15%
15:00 +43°C° 0 mm 5 mps 718 mmHg 15%
16:00 +41°C° 0 mm 5 mps 717 mmHg 17%
17:00 +40°C° 0 mm 5 mps 717 mmHg 19%
18:00 +39°C° 0 mm 5 mps 717 mmHg 20%
19:00 +36°C° 0 mm 4 mps 717 mmHg 29%
20:00 +33°C° 0 mm 3 mps 717 mmHg 37%
21:00 +30°C° 0 mm 2 mps 717 mmHg 45%
22:00 +30°C° 0 mm 2 mps 717 mmHg 46%
23:00 +29°C° 0 mm 2 mps 717 mmHg 48%

11 August, Tuesday

Time Temperature Precipitation Wind Pressure Humidity
00:00 +29°C° 0 mm 3 mps 718 mmHg 49%
01:00 +29°C° 0 mm 2 mps 717 mmHg 47%
02:00 +29°C° 0 mm 2 mps 717 mmHg 45%
03:00 +29°C° 0 mm 1 mps 717 mmHg 44%
04:00 +29°C° 0 mm 1 mps 717 mmHg 44%
05:00 +29°C° 0 mm 1 mps 717 mmHg 45%
06:00 +28°C° 0 mm 1 mps 717 mmHg 45%
07:00 +31°C° 0 mm 1 mps 718 mmHg 39%
08:00 +33°C° 0 mm 1 mps 718 mmHg 33%
09:00 +35°C° 0 mm 1 mps 719 mmHg 26%
10:00 +37°C° 0 mm 2 mps 719 mmHg 24%
11:00 +39°C° 0 mm 3 mps 719 mmHg 21%
12:00 +40°C° 0 mm 3 mps 719 mmHg 19%
13:00 +41°C° 0 mm 4 mps 718 mmHg 20%
14:00 +41°C° 0 mm 5 mps 718 mmHg 20%
15:00 +41°C° 0 mm 5 mps 718 mmHg 21%
16:00 +41°C° 0 mm 5 mps 718 mmHg 23%
17:00 +40°C° 0 mm 4 mps 718 mmHg 25%
18:00 +38°C° 0 mm 4 mps 718 mmHg 26%
19:00 +35°C° 0 mm 4 mps 718 mmHg 37%
20:00 +31°C° 0 mm 3 mps 718 mmHg 47%
21:00 +29°C° 0 mm 3 mps 718 mmHg 58%
22:00 +28°C° 0 mm 3 mps 718 mmHg 61%
23:00 +27°C° 0 mm 3 mps 718 mmHg 64%

12 August, Wednesday

Time Temperature Precipitation Wind Pressure Humidity
00:00 +27°C° 0 mm 3 mps 718 mmHg 67%
01:00 +26°C° 0 mm 3 mps 718 mmHg 68%
02:00 +26°C° 0 mm 3 mps 718 mmHg 69%
03:00 +25°C° 0 mm 3 mps 718 mmHg 70%
04:00 +25°C° 0 mm 3 mps 718 mmHg 66%
05:00 +25°C° 0 mm 2 mps 718 mmHg 62%
06:00 +25°C° 0 mm 2 mps 719 mmHg 57%
07:00 +27°C° 0 mm 2 mps 719 mmHg 47%
08:00 +28°C° 0 mm 2 mps 720 mmHg 37%
09:00 +30°C° 0 mm 3 mps 720 mmHg 26%
10:00 +33°C° 0 mm 3 mps 720 mmHg 26%
11:00 +34°C° 0 mm 4 mps 720 mmHg 25%
12:00 +36°C° 0 mm 4 mps 720 mmHg 24%
13:00 +35°C° 0 mm 5 mps 720 mmHg 26%
14:00 +35°C° 0 mm 5 mps 719 mmHg 28%
15:00 +35°C° 0 mm 5 mps 719 mmHg 29%
16:00 +34°C° 0 mm 5 mps 719 mmHg 31%
17:00 +33°C° 0 mm 4 mps 719 mmHg 33%
18:00 +31°C° 0 mm 3 mps 719 mmHg 34%
19:00 +30°C° 0 mm 2 mps 719 mmHg 37%
20:00 +28°C° 0 mm 1 mps 720 mmHg 39%
21:00 +27°C° 0 mm 1 mps 720 mmHg 42%
22:00 +27°C° 0 mm 1 mps 720 mmHg 42%
23:00 +27°C° 0 mm 1 mps 720 mmHg 43%

13 August, Thursday

Time Temperature Precipitation Wind Pressure Humidity
00:00 +26°C° 0 mm 1 mps 720 mmHg 44%
01:00 +26°C° 0 mm 1 mps 719 mmHg 45%
02:00 +23°C° 0 mm 0 mps 719 mmHg 46%
03:00 +23°C° 0 mm 0 mps 719 mmHg 46%
04:00 +23°C° 0 mm 0 mps 719 mmHg 46%
05:00 +23°C° 0 mm 0 mps 719 mmHg 46%
06:00 +23°C° 0 mm 0 mps 719 mmHg 45%
07:00 +28°C° 0 mm 1 mps 720 mmHg 40%
08:00 +30°C° 0 mm 1 mps 720 mmHg 35%
09:00 +32°C° 0 mm 2 mps 720 mmHg 29%
10:00 +34°C° 0 mm 2 mps 720 mmHg 27%
11:00 +36°C° 0 mm 3 mps 720 mmHg 24%
12:00 +38°C° 0 mm 4 mps 720 mmHg 21%
13:00 +38°C° 0 mm 4 mps 720 mmHg 21%
14:00 +39°C° 0 mm 5 mps 720 mmHg 21%
15:00 +39°C° 0 mm 5 mps 719 mmHg 21%
16:00 +37°C° 0 mm 4 mps 719 mmHg 23%
17:00 +36°C° 0 mm 4 mps 719 mmHg 25%
18:00 +35°C° 0 mm 3 mps 719 mmHg 27%
19:00 +32°C° 0 mm 2 mps 719 mmHg 30%
20:00 +31°C° 0 mm 2 mps 720 mmHg 34%
21:00 +29°C° 0 mm 1 mps 720 mmHg 37%
22:00 +29°C° 0 mm 1 mps 720 mmHg 37%
23:00 +29°C° 0 mm 1 mps 720 mmHg 38%
Show more